User: anonymous   Login
Location: Unspecified
(0.0000°N, 0.0000°E)
Time: 11:45:27
(UTC+00:00)
Language:

CUBERRT - Orbit

View from above orbital plane
View from above orbital plane
View from above satellite
View from above satellite

Ground track
Ground track

The orbit data is extracted from the following two-line orbital elements,

1 43546U 98067NU  20217.87475857 +.00018848 +00000-0 +12704-3 0  9991
2 43546 051.6331 032.5472 0002468 270.4825 089.5892 15.75165938117879
Epoch (UTC): 04 August 2020 20:59:39
Eccentricity: 0.0002468
inclination: 51.6331°
perigee height: 342 km
apogee height: 346 km
right ascension of ascending node: 32.5472°
argument of perigee: 270.4825°
revolutions per day: 15.75165938
mean anomaly at epoch: 89.5892°
orbit number at epoch: 11787

The dashed part of the orbit path shows where the satellite is in the earth's shadow,  

DLR